Weather History for Redmond, OR

Change the Weather History Date:

Tuesday, February 25, 2014

  Actual Average Record
Temperature  
Mean Temperature 30 °F 36 °F  
Max Temperature 32 °F 49 °F 69 °F (1963)
Min Temperature 27 °F 24 °F -2 °F (2011)
Degree Days  
Heating Degree Days 35 29  
Month to date heating degree days 863 750  
Since 1 July heating degree days 4693 4590  
Cooling Degree Days 0 0  
Month to date cooling degree days 0 0  
Year to date cooling degree days 0 0  
Moisture  
Dew Point 28 °F    
Average Humidity 96    
Maximum Humidity 100    
Minimum Humidity 92    
Precipitation  
Precipitation T in 0.02 in 0.42 in (1966)
Month to date precipitation 1.16 0.58  
Year to date precipitation 1.68 1.55  
Sea Level Pressure  
Sea Level Pressure 30.17 in    
Wind  
Wind Speed 10 mph (NW)    
Max Wind Speed 16 mph    
Max Gust Speed 19 mph    
Visibility 2 miles    
Events Fog , Rain    
T = Trace of Precipitation, MM = Missing Value Source: NWS Daily Summary

Daily Weather History Graph

Daily Weather History Graph

Search for Another Location

Airport:

Trip Planner

Search our weather history database for the weather conditions in past years. The results will help you decide how hot, cold, wet, or windy it might be!

Date:

Astronomy

Feb. 25, 2014 Rise Set
Actual Time 6:48 AM PST 5:47 PM PST
Civil Twilight 6:19 AM PST 6:16 PM PST
Nautical Twilight 5:45 AM PST 6:50 PM PST
Astronomical Twilight 5:11 AM PST 7:24 PM PST
Moon 3:54 AM PST (2/25) 1:53 PM PST (2/25)
Length of Visible Light 11h 57m
Length of Day
10h 59m
Waning Crescent, 17% of the Moon is Illuminated
Feb 25
Waning Crescent
Mar 1
New
Mar 8
First Quarter
Mar 16
Full
Mar 23
Last Quarter

Hourly Weather History & Observations

Time (PST) Temp. Windchill Dew Point Humidity Pressure Visibility Wind Dir Wind Speed Gust Speed Precip Events Conditions
12:56 AM 30.9 °F 22.8 °F 30.0 °F 96% 30.15 in 0.2 mi NW 9.2 mph - N/A Fog Light Freezing Fog
1:56 AM 32.0 °F 24.2 °F 30.0 °F 92% 30.15 in 0.8 mi NW 9.2 mph - N/A   Mist
2:23 AM 30.9 °F 23.5 °F 30.0 °F 96% 30.12 in 1.2 mi NW 8.1 mph - N/A   Overcast
2:56 AM 30.9 °F 22.8 °F 28.9 °F 92% 30.16 in 0.8 mi NW 9.2 mph - N/A   Mist
3:03 AM 30.9 °F 22.2 °F 28.9 °F 92% 30.12 in 1.0 mi NW 10.4 mph - N/A   Mist
3:14 AM 30.9 °F 23.5 °F 30.0 °F 96% 30.12 in 0.8 mi NW 8.1 mph - N/A   Mist
3:56 AM 30.0 °F 21.7 °F 28.9 °F 96% 30.17 in 0.8 mi NW 9.2 mph - N/A   Mist
4:56 AM 30.0 °F 21.7 °F 28.9 °F 96% 30.18 in 0.5 mi NW 9.2 mph - N/A Fog Light Freezing Fog
5:56 AM 30.0 °F 23.2 °F 28.0 °F 92% 30.19 in 0.5 mi NW 6.9 mph - N/A Fog Light Freezing Fog
6:56 AM 28.9 °F 19.2 °F 28.0 °F 96% 30.21 in 0.8 mi NNW 11.5 mph - 0.00 in Rain Light Freezing Rain
7:04 AM 28.9 °F 18.2 °F 28.0 °F 96% 30.15 in 0.5 mi NNW 13.8 mph - 0.00 in Rain Light Freezing Rain
7:15 AM 28.9 °F 20.4 °F 28.0 °F 96% 30.16 in 0.5 mi NW 9.2 mph - 0.00 in Fog Light Freezing Fog
7:56 AM 28.9 °F 21.9 °F 28.0 °F 96% 30.23 in 1.0 mi NNW 6.9 mph - 0.00 in   Overcast
8:56 AM 28.9 °F 19.8 °F 27.0 °F 92% 30.24 in 1.0 mi NW 10.4 mph - N/A   Overcast
9:56 AM 28.9 °F 19.8 °F 27.0 °F 92% 30.25 in 1.0 mi NNW 10.4 mph - N/A   Overcast
10:56 AM 28.9 °F 18.6 °F 28.0 °F 96% 30.25 in 1.0 mi NNW 12.7 mph - N/A   Overcast
11:56 AM 28.9 °F 19.2 °F 28.0 °F 96% 30.24 in 3.0 mi NW 11.5 mph - N/A   Overcast
12:32 PM 28.9 °F 19.8 °F 28.0 °F 96% 30.16 in 2.0 mi NW 10.4 mph - N/A   Overcast
12:56 PM 30.0 °F 20.5 °F 28.0 °F 92% 30.22 in 2.5 mi NW 11.5 mph - N/A   Overcast
1:13 PM 30.0 °F 20.5 °F 28.0 °F 92% 30.14 in 1.0 mi NNW 11.5 mph - N/A   Overcast
1:56 PM 30.0 °F 20.5 °F 28.0 °F 92% 30.20 in 1.0 mi NNW 11.5 mph - N/A   Overcast
2:56 PM 30.0 °F 21.1 °F 28.0 °F 92% 30.19 in 3.0 mi NNW 10.4 mph - N/A   Overcast
3:56 PM 30.0 °F 21.7 °F 28.0 °F 92% 30.18 in 10.0 mi NNW 9.2 mph - N/A   Overcast
4:42 PM 28.9 °F 19.2 °F 28.0 °F 96% 30.11 in 2.0 mi NNW 11.5 mph - N/A   Overcast
4:52 PM 28.4 °F 18.5 °F 28.4 °F 100% 30.11 in 1.5 mi NW 11.5 mph - N/A   Overcast
4:56 PM 28.9 °F 19.8 °F 28.0 °F 96% 30.18 in 1.5 mi NW 10.4 mph - N/A   Overcast
5:56 PM 28.0 °F 18.1 °F 27.0 °F 96% 30.18 in 1.2 mi NNW 11.5 mph - N/A   Overcast
6:43 PM 28.0 °F 18.1 °F 27.0 °F 96% 30.11 in 2.0 mi NNW 11.5 mph - N/A   Overcast
6:56 PM 28.0 °F 18.1 °F 27.0 °F 96% 30.18 in 2.5 mi NNW 11.5 mph - N/A   Overcast
7:07 PM 28.0 °F 19.3 °F 27.0 °F 96% 30.11 in 3.0 mi NNW 9.2 mph - N/A   Overcast
7:56 PM 28.0 °F 18.1 °F 26.1 °F 92% 30.18 in 2.5 mi NNW 11.5 mph - N/A   Overcast
8:20 PM 27.0 °F 16.7 °F 26.1 °F 96% 30.11 in 1.8 mi NW 11.5 mph - N/A   Overcast
8:29 PM 27.0 °F 18.0 °F 26.1 °F 96% 30.11 in 2.0 mi NNW 9.2 mph - N/A   Overcast
8:56 PM 27.0 °F 16.7 °F 26.1 °F 96% 30.19 in 1.2 mi NNW 11.5 mph - N/A   Overcast
9:56 PM 27.0 °F 17.3 °F 26.1 °F 96% 30.19 in 1.2 mi NNW 10.4 mph - N/A   Overcast
10:42 PM 27.0 °F 18.7 °F 25.0 °F 92% 30.11 in 2.5 mi NW 8.1 mph - N/A   Overcast
10:56 PM 27.0 °F 18.0 °F 25.0 °F 92% 30.18 in 3.0 mi NW 9.2 mph - N/A   Overcast
11:56 PM 27.0 °F 20.5 °F 26.1 °F 96% 30.18 in 2.5 mi NW 5.8 mph - N/A   Overcast